Meteo Giornale » Osservazioni meteo Polinesia Francese » Tahiti-Faaa
ore: 08:00 - Osservazioni Meteo Tahiti-Faaa
Lat. 17° 33' S Lon. 149° 37' W Alt. 2 metri s.l.m.
25 °C
Sereno
Temp. 24 Ore
22 °C
28 °C
Nord
5.5 Km/h
Dew point 19 °C
Umidità 69 %
Visibilità 10 Km
Il sole sorge alle ore 06:04
Il sole tramonta alle ore 17:51
| Data e Ora | Cielo e Fenomeni | T °C | DP °C | Um. % | Pres. hPa | Vis. km | Vento km/h | |
|---|---|---|---|---|---|---|---|---|
| Oggi h: 08:00 | Sereno | 25 | 19 | 69 | 1018 | 10 | N 5.5 | |
| Oggi h: 07:30 | Sereno | 23 | 18 | 73 | 1017 | 10 | N 3.7 | |
| Oggi h: 07:00 | Sereno | 23 | 19 | 78 | 1017 | 10 | E 7.4 | |
| Oggi h: 06:30 | Sereno | 22 | 19 | 83 | 1017 | 10 | E 7.4 | |
| Oggi h: 06:00 | Molto Nuvoloso | 22 | 18 | 78 | 1016 | 10 | N 5.5 | |
| Oggi h: 05:30 | Coperto | 23 | 18 | 73 | 1016 | 10 | N 5.5 | |
| Oggi h: 05:00 | Coperto | 23 | 18 | 73 | 1016 | 10 | N 5.5 | |
| Oggi h: 04:30 | Molto Nuvoloso | 23 | 18 | 73 | 1016 | 10 | E/NE 9.3 | |
| Oggi h: 04:00 | Molto Nuvoloso | 23 | 19 | 78 | 1016 | 10 | N 5.5 | |
| Oggi h: 03:30 | Coperto | 23 | 19 | 78 | 1016 | 10 | N 5.5 | |
| Oggi h: 03:00 | Coperto | 23 | 19 | 78 | 1016 | 10 | N 5.5 | |
| Oggi h: 02:30 | Coperto | 23 | 18 | 73 | 1016 | 10 | N 5.5 | |
| Oggi h: 02:00 | Coperto | 23 | 19 | 78 | 1016 | 10 | N 5.5 | |
| Oggi h: 01:30 | Molto Nuvoloso | 22 | 18 | 78 | 1016 | 10 | E 7.4 | |
| Oggi h: 01:00 | Sereno | 23 | 18 | 73 | 1017 | 10 | N 5.5 | |
| Oggi h: 00:30 | Sereno | 22 | 18 | 78 | 1017 | 10 | N 5.5 | |
| Oggi h: 00:00 | Sereno | 23 | 18 | 73 | 1017 | 10 | N 5.5 | |
| Ieri h: 23:30 | Sereno | 23 | 18 | 73 | 1017 | 10 | E/NE 9.3 | |
| Ieri h: 23:00 | Sereno | 23 | 19 | 78 | 1017 | 10 | E/NE 7.4 | |
| Ieri h: 22:30 | Sereno | 23 | 18 | 73 | 1018 | 10 | E 13 | |
| Ieri h: 22:00 | Sereno | 23 | 19 | 78 | 1018 | 10 | N 5.5 | |
| Ieri h: 21:30 | Sereno | 23 | 19 | 78 | 1017 | 10 | N 5.5 | |
| Ieri h: 21:00 | Sereno | 24 | 19 | 73 | 1017 | 10 | N 1.8 | |
| Ieri h: 20:30 | Sereno | 24 | 18 | 69 | 1017 | 10 | E/NE 7.4 | |
| Ieri h: 20:00 | Sereno | 24 | 19 | 73 | 1017 | 10 | E/NE 7.4 | |
| Ieri h: 19:30 | Sereno | 24 | 19 | 73 | 1017 | 10 | N 5.5 | |
| Ieri h: 19:00 | Sereno | 25 | 19 | 69 | 1016 | 10 | N 5.5 | |
| Ieri h: 18:30 | Sereno | 25 | 19 | 69 | 1016 | 10 | N 3.7 | |
| Ieri h: 18:00 | Sereno | 26 | 19 | 65 | 1016 | 10 | N 7.4 | |
| Ieri h: 17:30 | Poco Nuvoloso | 26 | 19 | 65 | 1015 | 10 | N 11.1 | |
| Ieri h: 17:00 | Poco Nuvoloso | 27 | 19 | 61 | 1015 | 10 | N/NE 11.1 | |
| Ieri h: 16:30 | Poco Nuvoloso | 28 | 20 | 61 | 1015 | 10 | N 7.4 | |
| Ieri h: 16:00 | Molto Nuvoloso | 28 | 20 | 61 | 1015 | 10 | N/NE 13 | |
| Ieri h: 15:30 | Molto Nuvoloso | 28 | 20 | 61 | 1015 | 10 | N 13 | |
| Ieri h: 15:00 | Molto Nuvoloso | 28 | 20 | 61 | 1015 | 10 | S/SO 7.4 | |
| Ieri h: 14:30 | Molto Nuvoloso | 28 | 20 | 61 | 1015 | 10 | SO 9.3 | |
| Ieri h: 14:00 | Coperto | 28 | 21 | 65 | 1016 | 10 | N 5.5 | |
| Ieri h: 13:30 | Molto Nuvoloso | 28 | 20 | 61 | 1016 | 10 | N 14.8 | |
| Ieri h: 13:00 | Molto Nuvoloso | 28 | 20 | 61 | 1016 | 10 | N/NE 24 | |
| Ieri h: 12:30 | Molto Nuvoloso | 27 | 21 | 69 | 1016 | 10 | E/NE 13 | |
| Ieri h: 12:00 | Molto Nuvoloso | 27 | 20 | 65 | 1017 | 10 | S/SO 16.7 | |
| Ieri h: 11:30 | Molto Nuvoloso | 28 | 21 | 65 | 1017 | 10 | S 11.1 | |
| Ieri h: 11:00 | Poco Nuvoloso | 28 | 20 | 61 | 1018 | 10 | N 14.8 | |
| Ieri h: 10:30 | Poco Nuvoloso | 27 | 22 | 74 | 1018 | 10 | O 13 | |
| Ieri h: 10:00 | Poco Nuvoloso | 27 | 21 | 69 | 1019 | 10 | O/SO 7.4 | |
| Ieri h: 09:30 | Poco Nuvoloso | 27 | 21 | 69 | 1019 | 10 | NO 7.4 | |
| Ieri h: 09:00 | Poco Nuvoloso | 27 | 21 | 69 | 1019 | 10 | N 5.5 | |



